Regional Weather Roundup
Issued by NWS

Home | Current Version | Previous Version | Graphics & Text | Print | Product List | Glossary Off
Versions: 1 2 3 4 5 6 7 8 9 10 11 12 13 14 15 16 17 18 19 20 21 22 23 24 25 26 27 28 29 30 31 32 33 34 35 36 37 38 39 40 41 42 43 44 45 46 47 48 49 50

000
ASUS43 KMKX 192020
RWRWI

WISCONSIN REGIONAL WEATHER ROUNDUP
NATIONAL WEATHER SERVICE MILWAUKEE/SULLIVAN WI
300 PM CDT THU APR 19 2018

NOTE: "FAIR" INDICATES FEW OR NO CLOUDS BELOW 12,000 FEET WITH NO
SIGNIFICANT WEATHER AND/OR OBSTRUCTIONS TO VISIBILITY.

WIZ001-002-006>008-014>016-023>028-192100-
NORTHWEST WISCONSIN

CITY           SKY/WX    TMP DP  RH WIND       PRES   REMARKS
SUPERIOR ARPT  FAIR      55  15  20 NW3       30.41F
ASHLAND        FAIR      51  12  21 SW6       30.41F
HAYWARD        FAIR      53  13  20 VRB7      30.41F
SIREN          FAIR      54  16  22 N3        30.43S
CUMBERLAND     FAIR      45  18  33 W6        30.43S
RICE LAKE      FAIR      49  15  24 NW3       30.45F
CHETEK         FAIR      49  18  29 W6        30.44S
LADYSMITH      FAIR      50  17  26 NW7       30.43S
EAU CLAIRE     FAIR      48  19  31 N7        30.44S
MENOMONIE      FAIR      50  19  29 W8        30.46R
NEW RICHMOND   FAIR      47  16  28 NW6       30.47R
OSCEOLA        FAIR      51  17  25 W5        30.49S
$$

WIZ003>005-009-010-017-018-192100-
NORTH CENTRAL WISCONSIN

CITY           SKY/WX    TMP DP  RH WIND       PRES   REMARKS
MANITOWISH WTR FAIR      47  13  25 NW6       30.38R
ARBOR VITAE    FAIR      52  11  19 NW9       30.37R
WOODRUFF       FAIR      52  11  19 NW9       30.37R
RHINELANDER    FAIR      50   2  14 N9        30.37S
EAGLE RIVER    FAIR      48   5  17 N10G16    30.36S
LAND O LAKES   FAIR      48   3  16 N8        30.38S
PHILLIPS       FAIR      50  11  21 N7        30.38S
TOMAHAWK       FAIR      52   3  14 N7        30.37S
MEDFORD        FAIR      48  15  26 NW9       30.38S
MERRILL          N/A     53   9  17 NE8       30.37S
$$

WIZ029-030-035-036-043>047-192100-
CENTRAL WISCONSIN

CITY           SKY/WX    TMP DP  RH WIND       PRES   REMARKS
WAUSAU         FAIR      49  17  28 W10       30.36R
MOSINEE        MOSUNNY   46  19  34 W13       30.39R
MARSHFIELD     FAIR      45  20  36 NW13      30.39S
STEVENS POINT  FAIR      47  20  35 W12       30.39R
WAUPACA        FAIR      54  16  22 W9        30.37R
WAUTOMA        FAIR      48  18  30 NW10      30.39S
WISC RAPIDS    FAIR      46  19  34 NW13      30.41R
CAMP DOUGLAS   MOSUNNY   46  25  42 W12       30.41S
$$

WIZ011>013-019>022-031-037>040-048>050-192100-
NORTHEAST WISCONSIN

CITY           SKY/WX    TMP DP  RH WIND       PRES   REMARKS
ANTIGO         FAIR      49  12  22 N5        30.35S
SHAWANO        FAIR      59   6  12 CALM      30.34S
OCONTO         FAIR      52   9  17 NW5       30.34R
STURGEON BAY   FAIR      48  15  26 N7        30.34S
GREEN BAY      FAIR      49  18  29 NW10      30.35S
MANITOWOC      FAIR      47  19  33 NW9       30.36S
APPLETON       MOSUNNY   50  10  20 W6        30.34S
CLINTONVILLE   FAIR      52  12  20 W7        30.34S
OSHKOSH        FAIR      48  17  29 W5        30.37R
$$

WIZ032>034-041-042-053>061-192100-
SOUTHWEST WISCONSIN

CITY           SKY/WX    TMP DP  RH WIND       PRES   REMARKS
LA CROSSE      FAIR      48  28  46 NW9       30.46S
SPARTA         FAIR      48  21  35 W7        30.45S
VIROQUA        FAIR      44  25  46 NW5       30.44S
BOSCOBEL       FAIR      48  26  42 NW10      30.45S
PRAIRIE DU CHI FAIR      45  25  45 W9        30.46S
PLATTEVILLE    FAIR      47  31  52 W12       30.44S
$$

WIZ056-057-062-063-064-067-068-192100-
SOUTH CENTRAL WISCONSIN

CITY           SKY/WX    TMP DP  RH WIND       PRES   REMARKS
REEDSBURG      FAIR      45  25  46 W13       30.42S
BARABOO/DELLS  FAIR      47  23  39 W10       30.41R
LONE ROCK      FAIR      46  27  47 W17       30.44R
MINERAL POINT  FAIR      46  28  49 W12       30.42S
MADISON        PTSUNNY   46  25  43 NW9       30.41R
MIDDLETON      FAIR      47  26  43 W8        30.42R
WATERTOWN      FAIR      43  26  50 W7        30.40R
MONROE         FAIR      48  23  37 NW9       30.41R
JANESVILLE     MOSUNNY   48  25  40 NW9G18    30.40R
$$

WIZ051-052-058>065-066-070>072-192100-
SOUTHEAST WISCONSIN

CITY           SKY/WX    TMP DP  RH WIND       PRES   REMARKS
MILWAUKEE      FAIR      48  22  35 NW10      30.38R
WAUKESHA       SUNNY     41  23  48 NW9       30.39R
MILWAUKEE/TIMM SUNNY     45  18  33 NW9       30.39R
RACINE         FAIR      48  24  39 NW7       30.39R
BURLINGTON     FAIR      44  25  48 W8        30.39R
KENOSHA        FAIR      47  29  49 NW10      30.38R
FOND DU LAC    FAIR      47  14  26 CALM      30.37S
SHEBOYGAN      FAIR      46  23  40 NW7       30.36S
WEST BEND      FAIR      45  19  36 NW8       30.38R
JUNEAU         FAIR      41  26  55 SW5       30.41R
$$

LSZ147-162-192100-
LAKE SUPERIOR

STATION/POSITION TIME  TEMP    WIND        PRES    WAVE
                       AIR SEA DIR/SP/G            HT/PER
                 (UTC) (F)     (DEG/KT/KT) (MB)    (FT/S)
DEVILS ISLAND    2000   43     230/  9/ 11 1030.6F
SAXON HARBOR     1940   45      70/  5/  5 1029.8S
$$

LMZ867-665-643>646-192100-
LAKE MICHIGAN

STATION/POSITION TIME  TEMP    WIND        PRES    WAVE
                       AIR SEA DIR/SP/G            HT/PER
                 (UTC) (F)     (DEG/KT/KT) (MB)    (FT/S)
NORTHPORT PIER   1940   40                 1026.8S
KEWAUNEE LAKESHO 2000   51     270/  2/  7 1026.7
SHEBOYGAN LAKESH 2000   46     350/ 13/ 18 1028.5S
PORT WASHINGTON  1930   49     340/  5/ 11 1029.1R
MILWAUKEE LAKESH 2000   45      10/  4/  5   N/A
KENOSHA   LAKESH 2000   46                 1028.8
$$

TC  - TEMPERATURE IN CELSIUS
VSB - VISIBILITY IN STATUTE MILES
WCI - WIND CHILL INDEX
HX  - HEAT INDEX




USA.gov is the U.S. government's official web portal to all federal, state and local government web resources and services.